Regional Weather Roundup
Issued by NWS

Home | Current Version | Previous Version | Text Only | Print | Product List | Glossary On
Versions: 1 2 3 4 5 6 7 8 9 10 11 12 13 14 15 16 17 18 19 20 21 22 23 24 25 26 27 28 29 30 31 32 33 34 35 36 37 38 39 40 41 42 43 44 45 46 47 48 49 50
000
ASCA42 TJSJ 180710
RWRPR
PUERTO RICO/U.S. VIRGIN ISLANDS HOURLY WEATHER ROUNDUP
NATIONAL WEATHER SERVICE SAN JUAN PR
300 AM AST SAT APR 18 2015

PRZ001-004-180800-
PUERTO RICO

CITY           SKY/WX    TMP DP  RH WIND       PRES   REMARKS
SAN JUAN LMM   PTCLDY    75  72  88 CALM      30.02F
PONCE          PTCLDY    73  66  78 CALM      29.99F
CEIBA          MOCLDY    77  72  83 NE7       30.03F
$$

PRZ006-007-180800-
U.S. VIRGIN ISLANDS

CITY           SKY/WX    TMP DP  RH WIND       PRES   REMARKS
$$

HOURLY WEATHER ROUNDUP FOR THE NEWS MEDIA

CITY           SKY/WX    TMP DP  RH WIND       PRES   REMARKS
ORLANDO        CLOUDY    72  70  93 CALM      29.99F
NEW YORK       CLEAR     55  44  66 CALM      29.97S
NEWARK         PTCLDY    58  47  66 N8        29.96F
CHICAGO        MOCLDY    64  46  52 SW5       30.00S
HARTFORD       CLEAR     48  47  96 CALM      29.90F FOG
BOSTON         CLEAR     54  45  71 W10       29.91F
DALLAS         CLOUDY    64  62  93 CALM      29.94F
PHILADELPHIA   PTCLDY    57  54  89 CALM      29.98R
LOS ANGELES    CLEAR     61  49  64 SW9       30.02R
WASHINGTON DC  MOCLDY    55  53  93 CALM      29.99F


USA.gov is the U.S. government's official web portal to all federal, state and local government web resources and services.